Regional Weather Roundup
Issued by NWS

Home | Current Version | Previous Version | Graphics & Text | Print | Product List | Glossary On
Versions: 1 2 3 4 5 6 7 8 9 10 11 12 13 14 15 16 17 18 19 20 21 22 23 24 25 26 27
000
ASUS45 KCYS 050910
RWRWY

WYOMING REGIONAL WEATHER ROUNDUP
NATIONAL WEATHER SERVICE CHEYENNE WY
300 AM MDT THU MAY 05 2016

NOTE:  "FAIR" INDICATES FEW OR NO CLOUDS BELOW 12,000 FEET
WITH NO SIGNIFICANT WEATHER AND/OR OBSTRUCTIONS TO VISIBILITY.

WYZ001-051000-
YELLOWSTONE NATIONAL PARK

CITY           SKY/WX    TMP DP  RH WIND       PRES   REMARKS
LK YELLOWSTONE   N/A     34  29  82 CALM      30.20F
W YELLOWSTONE  NOT AVBL

$$
WYZ002>013-054>058-071-098>099-051000-
NORTHERN WYOMING

CITY           SKY/WX    TMP DP  RH WIND       PRES   REMARKS
JACKSON        FAIR      39  30  70 N6        30.13S WCI  35
CODY           FAIR      61  28  29 SW8       29.99F
GREYBULL       FAIR      57  30  35 SE6       29.95S
WORLAND        FAIR      48  39  71 CALM      29.96S
SHERIDAN       FAIR      49  36  61 CALM      29.94F
BUFFALO        FAIR      56  28  34 SW8       30.01S
GILLETTE       FAIR      54  40  59 S17       29.98S
HULETT         FAIR      63  37  39 SW7       30.00F
NEWCASTLE      FAIR      55  36  47 E9        30.04F

$$
WYZ014>020-022>026-101>103-051000-
CENTRAL WYOMING

CITY           SKY/WX    TMP DP  RH WIND       PRES   REMARKS
BIG PINEY      FAIR      39  28  64 NE6       30.16F WCI  35
PINEDALE       FAIR      37  32  81 CALM      30.17F
DUBOIS         FAIR      43  23  45 NW10      30.15S
LANDER         FAIR      61  27  27 NW7       30.03S
RIVERTON       FAIR      55  32  41 W5        30.04F
CASPER         FAIR      42  35  76 W6        30.06F
DOUGLAS        FAIR      44  39  82 E7        30.06F

$$
WYZ021-027>030-104>119-051000-
SOUTHERN WYOMING

CITY           SKY/WX    TMP DP  RH WIND       PRES   REMARKS
EVANSTON       FAIR      52  26  36 SE6       30.14F
KEMMERER         N/A     41  32  70 N9        30.17F
FORT BRIDGER   SUNNY     55  27  33 W3        30.18F
ROCK SPRINGS   FAIR      49  27  42 SW3       30.14F
DIXON          FAIR      43  29  58 E3        30.21S
RAWLINS        FAIR      42  29  59 CALM      30.17S
SARATOGA       FAIR      37  28  70 SE7       30.20F WCI  32
LARAMIE        FAIR      37  31  78 SW9       30.20S WCI  30
CHEYENNE       FAIR      48  34  58 SW9       30.15F
TORRINGTON     FAIR      46  40  79 E8        30.06F
PINE BLUFFS    FAIR      45  37  76 SW7       30.13F

$$




USA.gov is the U.S. government's official web portal to all federal, state and local government web resources and services.